DateTimeUTC,F1_A11,F1_S11,BsB_S11,BsG_S11,BsR_S11,BbsB_S11,BbsG_S11,BbsR_S11,BaB_A11,BaG_A11,BaR_A11,Tu_S11,T_S11,Uu_S11,U_S11,P_S11,T1_A11
2021-07-02T08:00:00Z,00000200,20000000,,,,,,,-000.07,-000.08,-000.13,18.0,24.9,02.3,01.5,0674.0,31.1
2021-07-02T08:01:00Z,00000200,20000000,,,,,,,-000.06,-000.11,-000.26,18.0,24.9,02.3,01.5,0674.0,31.1
2021-07-02T08:02:00Z,00000200,20000000,,,,,,,-000.09,0000.13,-000.13,18.1,24.9,02.3,01.5,0674.0,31.1
2021-07-02T08:03:00Z,00000200,60000000,,,,,,,0000.22,0000.14,0000.25,18.1,25.0,02.3,01.5,0674.0,31.1
2021-07-02T08:04:00Z,00000200,40000000,0000.67,0000.36,-000.04,-000.41,0000.24,-000.15,-000.65,-000.37,-000.19,18.1,24.8,02.4,01.6,0674.9,31.1
2021-07-02T08:05:00Z,00000200,00000000,0000.63,0000.15,0000.25,0000.17,0000.48,-000.14,0000.43,0000.26,0000.12,18.1,24.7,02.3,01.6,0675.0,31.1
2021-07-02T08:06:00Z,00000200,00000000,0000.90,0000.30,-000.06,-000.25,0000.13,-000.01,0000.20,0000.23,0000.10,18.1,24.6,02.3,01.5,0675.0,31.0
2021-07-02T08:07:00Z,00000200,00000000,0000.79,0000.21,0000.42,0000.43,0000.14,-000.04,0000.40,-000.14,0000.09,18.1,24.6,02.3,01.5,0675.0,31.0
2021-07-02T08:08:00Z,00000200,00000000,0001.46,0000.31,0000.13,0000.22,0000.33,-000.37,0000.20,0000.47,0000.09,18.0,24.6,02.4,01.6,0675.0,31.0
2021-07-02T08:09:00Z,00000200,00000000,0001.03,0000.23,-000.21,-000.10,0000.06,-000.28,-000.05,0000.25,0000.21,18.1,24.6,02.4,01.6,0675.0,31.1
2021-07-02T08:10:00Z,00000200,00000000,0001.22,0000.14,0000.05,-000.36,0000.12,-000.18,0000.11,-000.23,0000.11,18.1,24.6,02.4,01.6,0675.0,31.1
2021-07-02T08:11:00Z,00000200,00000000,0001.35,0000.21,0000.04,0000.22,-000.07,-000.03,0000.24,-000.08,0000.02,18.2,24.6,02.5,01.7,0675.0,31.1
2021-07-02T08:12:00Z,00000200,00000000,0000.87,0000.14,0000.52,0000.06,0000.28,0000.04,-000.36,0000.33,-000.27,18.3,24.7,02.5,01.7,0675.0,31.1
2021-07-02T08:13:00Z,00000200,00010000,0000.83,0000.27,0000.27,-000.14,0000.16,-000.11,0000.14,-000.20,0000.53,18.3,24.7,02.4,01.6,0675.0,31.1
2021-07-02T08:14:00Z,00000200,00000000,0000.58,0000.23,0000.48,0000.26,0000.35,0000.22,0000.30,0000.37,-000.20,18.3,24.7,02.4,01.6,0675.0,31.1
2021-07-02T08:15:00Z,00000200,00000000,0000.80,0000.02,0000.19,0000.08,0000.28,-000.17,-000.01,0000.07,0000.11,18.3,24.7,02.4,01.6,0675.0,31.1
2021-07-02T08:16:00Z,00000200,00000000,0001.40,0000.15,0000.42,-000.43,-000.04,-000.09,0000.32,0000.01,0000.33,18.3,24.7,02.5,01.7,0675.0,31.1
2021-07-02T08:17:00Z,00000200,00000000,0000.44,0000.19,0000.12,-000.22,0000.20,-000.19,0000.02,0000.30,-000.13,18.2,24.6,02.6,01.7,0675.0,31.1
2021-07-02T08:18:00Z,00000200,00000000,0000.65,0000.33,0000.29,0000.15,0000.35,-000.09,0000.07,0000.46,0000.25,18.2,24.6,02.6,01.7,0675.0,31.0
2021-07-02T08:19:00Z,00000200,00000000,0000.75,0000.29,0000.36,-000.19,-000.14,0000.08,0000.32,-000.22,-000.02,18.1,24.6,02.6,01.7,0675.0,31.0
2021-07-02T08:20:00Z,00000200,00000000,0001.29,0000.51,0000.02,0000.05,0000.18,0000.01,-000.12,-000.02,-000.16,18.0,24.5,02.7,01.8,0675.0,31.0
2021-07-02T08:21:00Z,00000200,00000000,0000.54,0000.27,0000.06,-000.17,0000.14,-000.26,0000.34,0000.24,0000.22,18.0,24.5,02.6,01.8,0674.9,31.0
2021-07-02T08:22:00Z,00000200,00000000,0000.69,0000.65,0000.45,-000.56,0000.44,0000.08,0000.28,0000.17,0000.07,18.0,24.5,02.6,01.8,0674.9,31.0
2021-07-02T08:23:00Z,00000200,00000000,0001.37,0000.27,0000.17,0000.48,0000.19,-000.08,0000.02,0000.07,-000.13,18.0,24.4,02.6,01.7,0674.9,31.0
2021-07-02T08:24:00Z,00000200,00000000,0001.05,0000.23,0000.31,0000.59,0000.10,-000.14,0000.14,0000.07,0000.16,18.0,24.5,02.7,01.8,0674.9,31.0
2021-07-02T08:25:00Z,00000200,00000000,0000.85,0000.43,0000.31,-000.13,-000.04,-000.01,0000.12,0000.02,0000.41,18.1,24.5,02.7,01.8,0674.9,31.1
2021-07-02T08:26:00Z,00000200,00000000,0000.93,0000.45,0000.18,-000.20,-000.00,-000.12,0000.27,0000.24,0000.12,18.2,24.5,02.6,01.8,0674.9,31.1
2021-07-02T08:27:00Z,00000200,00000000,0000.38,0000.39,0000.41,0000.05,-000.03,0000.05,0000.01,0000.49,0000.06,18.2,24.6,02.8,01.9,0674.9,31.1
2021-07-02T08:28:00Z,00000200,00000000,0000.89,0000.29,0000.21,0000.04,0000.30,-000.01,0000.12,0000.09,0000.29,18.3,24.7,02.8,01.9,0674.9,31.1
2021-07-02T08:29:00Z,00000200,00000000,0000.61,0000.25,0000.23,-000.05,0000.16,0000.10,0000.31,-000.03,-000.07,18.3,24.7,02.7,01.8,0674.8,31.1
2021-07-02T08:30:00Z,00000200,00000000,0000.66,0000.26,0000.11,-000.01,0000.12,-000.19,-000.02,0000.19,0000.37,18.3,24.7,02.9,01.9,0674.8,31.1
2021-07-02T08:31:00Z,00000200,00000000,0001.54,0000.32,0000.38,-000.45,0000.26,-000.05,0000.28,-000.12,-000.21,18.3,24.6,02.9,02.0,0674.8,31.1
2021-07-02T08:32:00Z,00000200,00000000,0000.92,0000.26,0000.22,0000.10,0000.41,-000.06,0000.06,0000.47,0000.25,18.2,24.6,02.9,02.0,0674.8,31.1
2021-07-02T08:33:00Z,00000200,00000000,0000.88,0000.52,0000.24,0000.18,0000.21,0000.03,0000.31,0000.17,0000.15,18.2,24.6,03.0,02.0,0674.8,31.0
2021-07-02T08:34:00Z,00000200,00000000,0000.12,0000.23,-000.05,0000.15,0000.32,-000.26,0000.32,-000.16,0000.26,18.1,24.5,03.0,02.0,0674.8,31.0
2021-07-02T08:35:00Z,00000200,00000000,0000.55,0000.11,0000.32,0000.35,-000.14,0000.40,-000.20,0000.17,-000.26,18.1,24.5,03.1,02.1,0674.8,31.0
2021-07-02T08:36:00Z,00000200,00000000,0000.63,0000.14,0000.40,0000.16,0000.39,-000.06,0000.20,0000.14,-000.06,18.0,24.5,03.0,02.1,0674.8,31.0
2021-07-02T08:37:00Z,00000200,00000000,0001.16,0000.38,0000.43,-000.36,0000.38,0000.06,-000.18,0000.12,0000.19,18.0,24.4,03.0,02.0,0674.8,31.0
2021-07-02T08:38:00Z,00000200,00000000,0000.71,0000.25,0000.30,-000.07,0000.36,-000.06,0000.33,-000.09,0000.07,18.0,24.4,03.0,02.0,0674.7,31.0
2021-07-02T08:39:00Z,00000200,00000000,0001.04,0000.25,0000.31,0000.30,0000.14,-000.10,0000.40,0000.41,0000.01,18.0,24.4,03.1,02.1,0674.7,31.0
2021-07-02T08:40:00Z,00000200,00000000,0001.07,0000.08,0000.14,0000.39,0000.22,0000.11,0000.14,-000.02,0000.47,18.0,24.4,03.2,02.2,0674.7,31.1
2021-07-02T08:41:00Z,00000200,00000000,0001.54,0000.19,0000.32,0000.33,0000.06,-000.24,0000.01,0000.20,0000.04,18.1,24.5,03.2,02.2,0674.7,31.1
2021-07-02T08:42:00Z,00000200,00000000,0001.26,0000.58,0000.18,-000.10,0000.02,-000.32,0000.06,0000.57,0000.13,18.2,24.5,03.3,02.2,0674.7,31.1
2021-07-02T08:43:00Z,00000200,00000000,0000.52,0000.35,0000.13,0000.31,0000.29,-000.16,0000.04,-000.24,-000.22,18.3,24.6,03.1,02.1,0674.8,31.1
2021-07-02T08:44:00Z,00000200,00000000,0000.70,0000.23,0000.24,0000.41,0000.35,-000.32,0000.00,-000.15,0000.22,18.3,24.6,03.2,02.2,0674.8,31.1
2021-07-02T08:45:00Z,00000200,00000000,0000.36,-000.06,0000.31,-000.05,-000.01,-000.14,-000.05,-000.26,-000.36,18.3,24.6,03.2,02.2,0674.8,31.1
2021-07-02T08:46:00Z,00000200,00000000,0000.85,0000.45,0000.15,-000.36,0000.18,-000.11,0000.52,0000.53,0000.13,18.3,24.6,03.2,02.2,0674.8,31.1
2021-07-02T08:47:00Z,00000200,00000000,0000.70,0000.21,0000.15,0000.33,0000.45,-000.25,-000.22,0000.02,0000.44,18.2,24.6,03.2,02.2,0674.8,31.1
2021-07-02T08:48:00Z,00000200,00000000,0001.30,0000.25,0000.44,-000.03,0000.12,-000.06,0000.31,-000.07,-000.01,18.2,24.5,03.1,02.1,0674.7,31.1
2021-07-02T08:49:00Z,00000200,00000000,0000.67,0000.06,0000.33,0000.15,0000.04,-000.01,-000.43,-000.14,-000.03,18.1,24.5,03.2,02.1,0674.7,31.0
2021-07-02T08:50:00Z,00000200,00000000,0000.32,0000.34,0000.27,-000.33,0000.15,0000.01,0000.01,0000.07,-000.13,18.1,24.5,03.1,02.1,0674.7,31.0
2021-07-02T08:51:00Z,00000200,00000000,0001.33,0000.32,0000.29,0000.04,0000.41,0000.33,0000.39,0000.40,0000.44,18.0,24.4,03.1,02.1,0674.7,31.0
2021-07-02T08:52:00Z,00000200,00000000,0000.77,0000.06,0000.36,-000.37,0000.14,-000.07,-000.04,-000.25,-000.25,18.0,24.4,03.2,02.2,0674.7,31.0
2021-07-02T08:53:00Z,00000200,00000000,0000.74,0000.18,0000.20,-000.14,0000.11,0000.17,0000.19,0000.29,-000.05,18.0,24.4,03.3,02.2,0674.7,31.0
2021-07-02T08:54:00Z,00000200,00000000,0000.55,0000.28,0000.20,-000.14,0000.37,0000.06,0000.36,-000.05,0000.31,18.0,24.4,03.3,02.2,0674.7,31.0
2021-07-02T08:55:00Z,00000200,00000000,0000.48,0000.39,-000.07,-000.44,0000.04,0000.08,-000.10,0000.37,-000.09,18.1,24.4,03.3,02.2,0674.7,31.1
2021-07-02T08:56:00Z,00000200,00000000,0001.04,0000.09,0000.65,-000.40,0000.13,0000.01,0000.19,-000.01,0000.27,18.1,24.5,03.2,02.2,0674.7,31.1
2021-07-02T08:57:00Z,00000200,40000000,,,,,,,-000.06,-000.13,0000.15,18.2,24.6,03.3,02.2,0674.8,31.1
2021-07-02T08:58:00Z,00000200,60000000,,,,,,,0000.06,0000.17,-000.16,18.1,24.7,03.0,02.0,0673.7,31.1
2021-07-02T08:59:00Z,00000200,20000000,,,,,,,-000.15,-000.03,-000.00,18.1,24.8,03.2,02.1,0673.7,31.1
